BAW4TM EDDF-EGLL

Flight info

Callsign BAW4TM
Flight time N/A
Altitude 38000
Route OBOKA3M/25C OBOKA Z29 TORNU DCT ABNED L980 LOGAN
Aircraft A320/M-SDE3FGHIRWY/LB1

Departure

Time 2026-04-14 09:01
Airport Frankfurt Main Airport (EDDF)

Arrival

Time N/A
Airport London Heathrow Airport (EGLL)
Time Latitude Longitude Altitude Speed Heading
2026-04-14 08:36 50.05081 8.58737 360 ft 0 kts 340°
2026-04-14 08:52 50.05079 8.58738 359 ft 2 kts 340°
2026-04-14 08:52 50.05055 8.58752 362 ft 4 kts 340°
2026-04-14 08:52 50.05029 8.58767 363 ft 4 kts 340°
2026-04-14 08:53 50.05006 8.58782 366 ft 4 kts 322°
2026-04-14 08:53 50.04991 8.58812 359 ft 4 kts 278°
2026-04-14 08:53 50.04992 8.58846 359 ft 2 kts 250°
2026-04-14 08:53 50.04996 8.58860 359 ft 0 kts 250°
2026-04-14 08:57 50.04992 8.58844 359 ft 4 kts 250°
2026-04-14 08:57 50.04977 8.58782 338 ft 8 kts 250°
2026-04-14 08:57 50.04948 8.58682 365 ft 11 kts 230°
2026-04-14 08:58 50.04877 8.58689 363 ft 10 kts 158°
2026-04-14 08:58 50.04814 8.58729 365 ft 9 kts 158°
2026-04-14 08:58 50.04757 8.58759 367 ft 8 kts 163°
2026-04-14 08:58 50.04705 8.58770 369 ft 7 kts 186°
2026-04-14 08:59 50.04657 8.58760 370 ft 7 kts 187°
2026-04-14 08:59 50.04602 8.58736 371 ft 9 kts 211°
2026-04-14 08:59 50.04546 8.58667 371 ft 11 kts 219°
2026-04-14 08:59 50.04485 8.58576 370 ft 13 kts 241°
2026-04-14 09:00 50.04475 8.58540 370 ft 5 kts 248°
2026-04-14 09:00 50.04379 8.58138 370 ft 76 kts 249°
2026-04-14 09:00 50.04121 8.57053 366 ft 134 kts 250°
2026-04-14 09:00 50.03744 8.55468 392 ft 174 kts 250°
2026-04-14 09:01 50.03314 8.53708 1029 ft 173 kts 252°
2026-04-14 09:01 50.02901 8.51950 1784 ft 176 kts 253°
2026-04-14 09:01 50.02383 8.50100 2117 ft 202 kts 234°
2026-04-14 09:01 50.01165 8.48923 2636 ft 215 kts 193°
2026-04-14 09:02 49.99703 8.48379 3217 ft 225 kts 195°
2026-04-14 09:02 49.98175 8.47759 3973 ft 228 kts 194°
2026-04-14 09:02 49.96645 8.47142 4882 ft 227 kts 194°
2026-04-14 09:02 49.95096 8.46533 5665 ft 236 kts 195°
2026-04-14 09:03 49.93437 8.45846 6164 ft 257 kts 197°
2026-04-14 09:03 49.91742 8.44863 6910 ft 262 kts 213°
2026-04-14 09:03 49.90462 8.42928 7116 ft 256 kts 241°
2026-04-14 09:03 49.89670 8.40486 7178 ft 253 kts 245°
2026-04-14 09:04 49.88962 8.37992 7356 ft 256 kts 256°
2026-04-14 09:04 49.88658 8.35259 8073 ft 265 kts 269°
2026-04-14 09:04 49.88762 8.32346 8770 ft 274 kts 275°
2026-04-14 09:04 49.88924 8.29373 9690 ft 280 kts 277°
2026-04-14 09:05 49.89413 8.26424 10529 ft 286 kts 291°
2026-04-14 09:05 49.90413 8.23633 10905 ft 309 kts 305°
2026-04-14 09:05 49.91739 8.20867 11258 ft 326 kts 305°
2026-04-14 09:05 49.93110 8.18018 11902 ft 332 kts 305°
2026-04-14 09:06 49.94634 8.15291 12584 ft 338 kts 315°
2026-04-14 09:06 49.96421 8.12891 13274 ft 342 kts 317°
2026-04-14 09:06 49.98243 8.10472 13971 ft 346 kts 317°
2026-04-14 09:06 50.00079 8.08026 14570 ft 350 kts 317°
2026-04-14 09:07 50.01930 8.05548 15167 ft 353 kts 317°
2026-04-14 09:07 50.03799 8.03042 15761 ft 356 kts 317°
2026-04-14 09:07 50.05685 8.00515 16348 ft 360 kts 317°
2026-04-14 09:07 50.07568 7.97991 16929 ft 363 kts 317°
2026-04-14 09:08 50.09489 7.95414 17524 ft 366 kts 317°
2026-04-14 09:08 50.11452 7.92777 18124 ft 370 kts 317°
2026-04-14 09:08 50.13408 7.90143 18684 ft 373 kts 317°
2026-04-14 09:08 50.15380 7.87482 19222 ft 376 kts 317°
2026-04-14 09:09 50.17339 7.84837 19771 ft 379 kts 316°
2026-04-14 09:09 50.19340 7.82132 20320 ft 382 kts 316°
2026-04-14 09:09 50.21350 7.79409 20902 ft 383 kts 317°
2026-04-14 09:09 50.23392 7.76644 21452 ft 385 kts 317°
2026-04-14 09:10 50.25494 7.74118 21925 ft 389 kts 326°
2026-04-14 09:10 50.27899 7.72133 22384 ft 394 kts 335°
2026-04-14 09:10 50.30423 7.70418 22854 ft 397 kts 334°
2026-04-14 09:10 50.32970 7.68680 23328 ft 401 kts 334°
2026-04-14 09:11 50.35535 7.66925 23775 ft 404 kts 334°
2026-04-14 09:11 50.38118 7.65154 24163 ft 407 kts 334°
2026-04-14 09:11 50.40719 7.63365 24586 ft 409 kts 334°
2026-04-14 09:11 50.43332 7.61571 25008 ft 411 kts 334°
2026-04-14 09:12 50.45957 7.59767 25417 ft 413 kts 334°
2026-04-14 09:12 50.48592 7.57950 25829 ft 414 kts 334°
2026-04-14 09:12 50.51239 7.56118 26241 ft 416 kts 334°
2026-04-14 09:12 50.53891 7.54281 26656 ft 418 kts 334°
2026-04-14 09:13 50.56494 7.52247 27061 ft 418 kts 327°
2026-04-14 09:13 50.58942 7.49771 27452 ft 419 kts 325°
2026-04-14 09:13 50.61390 7.47262 27842 ft 421 kts 325°
2026-04-14 09:13 50.63847 7.44743 28295 ft 421 kts 326°
2026-04-14 09:14 50.66302 7.42226 28753 ft 422 kts 325°
2026-04-14 09:14 50.68764 7.39697 29155 ft 423 kts 325°
2026-04-14 09:14 50.71227 7.37122 29539 ft 425 kts 322°
2026-04-14 09:14 50.73471 7.34085 29909 ft 425 kts 313°
2026-04-14 09:15 50.75372 7.30499 30285 ft 426 kts 304°
2026-04-14 09:15 50.76886 7.26471 30590 ft 428 kts 296°
2026-04-14 09:15 50.78241 7.22282 30907 ft 429 kts 296°
2026-04-14 09:15 50.79608 7.18071 31281 ft 429 kts 297°
2026-04-14 09:16 50.80971 7.13886 31735 ft 428 kts 297°
2026-04-14 09:16 50.82329 7.09711 32207 ft 426 kts 297°
2026-04-14 09:16 50.83664 7.05596 32661 ft 425 kts 297°
2026-04-14 09:16 50.85007 7.01447 33134 ft 423 kts 297°
2026-04-14 09:17 50.86343 6.97306 33612 ft 421 kts 297°
2026-04-14 09:17 50.87670 6.93189 34083 ft 419 kts 297°
2026-04-14 09:17 50.88994 6.89082 34461 ft 418 kts 297°
2026-04-14 09:17 50.90317 6.84980 34791 ft 418 kts 297°
2026-04-14 09:18 50.91638 6.80874 35090 ft 418 kts 297°
2026-04-14 09:18 50.92958 6.76758 35367 ft 419 kts 297°
2026-04-14 09:18 50.94275 6.72638 35663 ft 419 kts 297°
2026-04-14 09:18 50.95594 6.68500 35942 ft 420 kts 297°
2026-04-14 09:19 50.96909 6.64361 36217 ft 421 kts 297°
2026-04-14 09:19 50.98224 6.60213 36480 ft 421 kts 297°